www.pogodaiklimat.ru

Погода и климат >> Архив погоды >> Аргентина >> San Miguel de Tucuman


ПОГОДА в San Miguel de Tucuman

  • Прогноз погоды в San Miguel de Tucuman
  • Монитор погоды в San Miguel de Tucuman
  • Климат города

АРХИВ ПОГОДЫ в San Miguel de Tucuman

Время (UTC), дата Ветер
(напр.,м/с)
 
Видим.   Явления Облачность Т
(С)
Тd
(С)
f
(%)
Тe
(С)
Тes
(С)
Комфортность P
(гПа)
Po
(гПа)
Тmin
(С)
Tmax
(С)
R
(мм)
R24
(мм)
S
(см)
09 10.12 С 3 15 км ясно +19.4 +17.5 89 +22 +22 комфорт 1009.4 958.9
12 10.12 СЗ 3 15 км ясно +25.3 +20.2 73 +31 +36 очень
душно
1011.3 961.0 +18.7 +25.3 0.1
15 10.12 штиль 0 15 км 1/1 1200 м
[Cu hum]
+32.0 +18.5 45 +37 +61 опасность
солнечного
удара
1009.7 960.1
18 10.12 штиль 0 15 км 3/1 1350 м
[Cb cap Ci ing]
+34.4 +16.4 34 1007.1 957.7
21 10.12 С 2 15 км 1/1 1200 м
[Cu med, cong]
+35.8 +15.8 30 +38 +42 очень
душно
1005.2 955.8
00 11.12 СЗ 2 15 км 6/1 1200 м
[Sc Cs]
+30.4 +18.5 49 +35 +35 очень
душно
1006.7 957.3 +25.3 +36.0
03 11.12 СЗ 3 12 км 3/0
[Cs]
+24.2 +17.3 65 +28 +28 душно 1008.7 959.2
06 11.12 СЗ 3 12 км 3/0
[Ac trans]
+23.3 +17.5 70 +29 +29 душно 1008.7 959.4
09 11.12 З 3 12 км 5/0
[Ac und]
+21.5 +17.9 80 +26 +26 душно 1013.0 963.4
12 11.12 Ю 4 15 км 5/0
[Ac As Cs]
+26.0 +15.7 53 +29 +32 душно 1015.5 965.7 +21.0 +30.4
15 11.12 штиль 0 15 км 3/0
[Cs]
+28.6 +13.9 41 +31 +56 опасность
солнечного
удара
1014.2 964.2
18 11.12 штиль 0 15 км 3/0
[Cs]
+31.2 +13.9 35 +33 +57 опасность
солнечного
удара
1010.6 960.9
21 11.12 СВ 2 15 км 8/1 1500 м
[Cb cap As op Cs]
+31.4 +14.2 35 +33 +36 жарко 1007.5 957.8
00 12.12 СВ 3 12 км 9/0
[As op Cs]
+26.8 +17.0 55 +31 +31 душно 1006.3 956.6 +26.0 +32.6
03 12.12 З 3 12 км ясно +23.4 +16.4 65 +28 +28 душно 1008.7 958.9
06 12.12 С 2 12 км ясно +21.2 +17.1 77 +25 +25 комфорт 1007.1 957.4
09 12.12 С 2 12 км 3/3 1200 м
[Sc]
+20.2 +15.6 75 +23 +23 комфорт 1007.8 958.0
12 12.12 СЗ 2 15 км ясно +24.3 +17.8 67 +28 +34 душно 1008.8 959.0 +19.5 +26.8
15 12.12 штиль 0 12 км ясно +30.7 +16.5 42 +34 +61 опасность
солнечного
удара
1006.5 957.0
18 12.12 СВ 5 12 км ясно +35.2 +16.6 33 +38 +49 очень
душно
1002.7 953.6
21 12.12 СВ 6 15 км 1/0
[Ac trans]
+37.2 +15.8 28 +39 +41 очень
душно
1000.1 951.2
00 13.12 З 2 7000 м пыль 4/0
[Ac trans Cs]
+29.4 +19.6 56 +35 +35 очень
душно
1002.5 953.2 +24.3 +37.2
03 13.12 С 3 9000 м пыль ясно +26.4 +20.5 70 +33 +33 очень
душно
1002.6 953.4
06 13.12 С 2 12 км ясно +24.8 +17.7 65 +29 +29 душно 1000.0 951.3
09 13.12 СЗ 3 12 км ясно +24.0 +17.5 67 +28 +28 душно 1000.4 951.7
12 13.12 ЮВ 3 12 км ясно +28.6 +20.2 60 +35 +40 очень
душно
1003.8 954.6 +22.9 +29.4
15 13.12 штиль 0 12 км ясно +33.0 +19.6 45 +39 +66 опасность
солнечного
удара
1004.4 955.4
18 13.12 ЮЗ 3 12 км 1/1 1200 м
[Cu hum]
+36.2 +19.5 38 +42 +55 опасность
перегрева
1002.8 954.0
21 13.12 ЮЗ 5 12 км 9/3 1050 м
[Cu Sc Ac As Cs]
+34.3 +20.2 44 +41 +42 опасность
перегрева
1001.7 952.8
00 14.12 ЮЗ 2 5000 м мгла 10/3 1350 м
[Sc Ac As]
+31.4 +20.4 52 +38 +38 очень
душно
1003.9 955.0 +28.0 +36.5
03 14.12 З 2 8000 м зарница 8/8 1200 м
[Cb cap]
+28.6 +22.0 68 +37 +37 очень
душно
1006.7 957.8
06 14.12 Ю 4 12 км 6/6 1200 м
[Sc]
+24.4 +19.2 73 +29 +29 душно 1009.9 960.6
09 14.12 Ю 3 8000 м дымка 10/10 900 м
[Sc]
+22.8 +19.1 80 +29 +29 очень
душно
1012.1 962.6
12 14.12 ЮЗ 5 7000 м дымка 10/10 450 м
[Sc]
+21.2 +17.3 78 +25 +25 комфорт 1016.1 966.0 +21.0 +31.7
15 14.12 Ю 4 12 км 10/5 1350 м
[Sc Ac As]
+23.2 +15.3 61 +27 +29 душно 1015.8 965.6
18 14.12 ЮЗ 4 12 км 9/0
[Ac trans Cs]
+27.1 +17.2 55 +31 +40 душно 1012.7 962.6
21 14.12 ЮЗ 2 9000 м мгла 9/0
[Ac trans Cs]
+27.8 +17.1 52 +32 +35 душно 1010.6 960.6
00 15.12 штиль 0 9000 м мгла 5/0
[Ac trans Cs]
+25.4 +17.3 61 +29 +29 душно 1011.1 960.8 +21.2 +28.0
03 15.12 С 3 9000 м мгла 4/0
[Cs]
+23.0 +18.2 74 +29 +29 очень
душно
1011.7 961.3
06 15.12 С 4 12 км 5/0
[Cs]
+23.2 +17.2 69 +28 +28 душно 1009.7 959.7
09 15.12 штиль 0 8000 м дым 9/0
[Ac As Cs]
+22.6 +18.6 78 +28 +28 душно 1009.6 959.6
12 15.12 З 2 7000 м дымка 10/10 1200 м
[Sc]
+23.2 +18.6 75 +29 +29 душно 1010.6 960.4 +22.0 +25.4
15 15.12 С 2 12 км 4/4 1200 м
[Sc]
+28.0 +19.0 58 +33 +45 очень
душно
1008.4 958.5
18 15.12 С 2 12 км 3/3 600 м
[Cu hum]
+33.6 +19.5 44 +39 +52 опасность
солнечного
удара
1004.0 954.8
21 15.12 З 4 12 км 5/5 1050 м
[Cu Sc]
+35.1 +19.6 40 +40 +42 очень
душно
1000.1 951.2
00 16.12 ЮЗ 3 12 км 8/0
[Cs]
+29.6 +21.7 63 +38 +38 очень
душно
1001.1 951.8 +23.2 +36.2
03 16.12 штиль 0 10 км ясно +27.0 +21.6 72 +34 +34 очень
душно
1001.6 952.4
06 16.12 В 3 12 км ясно +25.6 +19.9 71 +31 +31 очень
душно
999.5 950.6
09 16.12 С 3 12 км 1/0
[Ac trans]
+26.6 +20.1 68 +33 +33 очень
душно
999.2 950.6
12 16.12 штиль 0 12 км ясно +31.4 +21.6 56 +40 +48 очень
душно
999.5 950.9 +24.8 +31.4
15 16.12 СЗ 4 12 км ясно +38.4 +19.5 33 +43 +56 опасность
перегрева
997.4 949.2
18 16.12 СЗ 4 12 км 1/1 1200 м
[Cu hum]
+41.8 +20.4 29 +47 +58 опасность
перегрева
993.6 945.8
21 16.12 С 8 12 км 8/8 1200 м
[Sc]
+40.2 +18.5 28 +44 +44 опасность
перегрева
991.7 943.8
00 17.12 С 4 12 км 8/8 1200 м
[Sc]
+34.6 +20.0 42 +40 +40 очень
душно
992.4 944.5 +31.4 +42.5
03 17.12 С 3 10 км 5/3 1200 м
[Sc Cs]
+32.7 +17.0 39 +36 +36 очень
душно
993.1 945.4
06 17.12 С 3 10 км 5/0
[Cs]
+31.1 +17.9 45 +35 +35 очень
душно
990.8 943.4

 

Местоположение метеостанции San Miguel de Tucuman (Аргентина): широта -26.85 долгота -65.09 высота над уровнем моря 450 м.

В архиве по умолчанию представлена погода в San Miguel de Tucuman за последнюю неделю. Архивные данные за месяц целиком и за предыдущие месяцы, начиная с января 2011 года, Вы можете получить, выбрав интересующий диапазон дат из раскрывающегося списка и нажав кнопку "Ввод!".

Внимание! Время в таблицах - всемирное. Для получения местного времени необходимо прибавить поправку, которая в San Miguel de Tucuman равна -3 ч.

Смотрите также архив погоды в соседних городах и на ближайших метеорологических станциях:

Погода в Santiago del Estero (Аргентина) (128 км)
Погода в San Fernando del Valle de Catamarca (Аргентина) (206 км)
Погода в Salta (Аргентина) (226 км)
Погода в San Salvador de Jujuy (Аргентина) (275 км)
Погода в La Rioja (Аргентина) (328 км)
Погода в Villa de Maria del Rio Seco (Аргентина) (366 км)
Погода в Chamical (Аргентина) (407 км)
Погода в San Ramon de la Nueva Oran (Аргентина) (419 км)
Погода в Ceres (Аргентина) (456 км)
Погода в Presidencia Roque Saenz Pena (Аргентина) (458 км)

Пояснения к столбцам:

Ветер - указаны скорость ветра в м/с - средняя за 10 мин, порывы в срок и между сроками (в фигурных скобках) и направление, откуда дует ветер: С - северный, СВ - северо-восточный, В - восточный, ЮВ - юго-восточный, Ю - южный, ЮЗ - юго-западный, З - западный, СЗ - северо-западный.
Видимость - горизонтальная дальность видимости в метрах или километрах. При видимости от 1 до 10 км при отсутствии осадков обычно наблюдается дымка, при ухудшении видимости до 1 км и менее - туман. В сухую погоду видимость может ухудшаться дымом, пылью или мглою.
Явления - указаны атмосферные явления, наблюдавшиеся в срок или в последний час перед сроком; фигурными скобками обозначены явления, наблюдавшиеся между сроками (за 1-3 часа до срока); квадратными скобками обозначены град или гололедные отложения с указанием их диаметра в мм.
Облачность - указаны через наклонную черту общая и нижняя облачность в баллах и высота нижней границы облаков в метрах; квадратными скобками обозначены формы облаков: Ci - перистые, Cs - перисто-слоистые, Cc - перисто-кучевые, Ac - высококучевые, As - высокослоистые, Sc - слоисто-кучевые, Ns - слоисто-дождевые, Cu - кучевые, Cb - кучево-дождевые. Подробнее классификацию облаков см. в Атласе облаков (PDF).
T - Температура воздуха - температура, измеренная на высоте 2 м над землей.
Td - Температура точки росы - температура, при понижении до которой содержащийся в воздухе водяной пар достигнет насыщения.
f - Относительная влажность воздуха - влажноcть воздуха, измеренная на высоте 2 м над землей.
Te - Эффективная температура - температура, которую ощущает одетый по сезону человек в тени. Характеристика душности погоды. При расчете учитывается влияние влажности воздуха и скорости ветра на теплоощущения человека.
Tes - Эффективная температура на солнце - температура, которую ощущает человек, с поправкой на солнечный нагрев. Характеристика знойности погоды. Зависит от высоты солнца над горизонтом, облачности и скорости ветра. Ночью, в пасмурную погоду, а также при ветре 12 м/с и более поправка равна нулю.
P - Атмосферное давление - приведенное к уровню моря атмосферное давление.
Po - Атмосферное давление - измеренное на уровне метеостанции атмосферное давление.
Tmin - Минимальная температура - минимум температуры воздуха на высоте 2 м над землей.
Tmax - Максимальная температура - максимум температуры воздуха на высоте 2 м над землей.
R - Количество осадков - Количество выпавших осадков за период времени, мм. При наведении курсора мыши на число - период времени, за который выпало указанное количество осадков.
R24 - Количество осадков - Количество выпавших осадков за 24 часа, мм.
S - Снежный покров - Высота снежного покрова, см. При наведении курсора мыши на число - состояние снежного покрова и степень покрытия местности в баллах.